Findlay, OH

4:18 AM EDT on July 25, 2017 (GMT -0400)
Findlay

Weather History for KFDY - December, 2012

Change the Weather History Date:

Friday, December 28, 2012

  Actual Average Record
Temperature  
Mean Temperature 20 °F -  
Max Temperature 30 °F 33 °F 64 °F (1984)
Min Temperature 10 °F 19 °F -10 °F (1950)
Degree Days  
Heating Degree Days 45    
Moisture  
Dew Point 18 °F    
Average Humidity 88    
Maximum Humidity 100    
Minimum Humidity 75    
Precipitation  
Precipitation 0.00 in - - ()
Sea Level Pressure  
Sea Level Pressure 30.07 in    
Wind  
Wind Speed 2 mph (ESE)    
Max Wind Speed 10 mph    
Max Gust Speed -    
Visibility 4 miles    
Events Fog , Snow    
Averages and records for this station are not official NWS values.
T = Trace of Precipitation, MM = Missing Value Source: NWS Daily Summary

Daily Weather History Graph

Daily Weather History Graph

Search for Another Location

Airport or City:

Trip Planner

Search our weather history database for the weather conditions in past years. The results will help you decide how hot, cold, wet, or windy it might be!

Date:

Astronomy

Dec. 28, 2012 Rise Set
Actual Time 7:59 AM EST 5:14 PM EST
Civil Twilight 7:27 AM EST 5:45 PM EST
Nautical Twilight 6:53 AM EST 6:19 PM EST
Astronomical Twilight 6:19 AM EST 6:53 PM EST
Moon 5:50 PM EST (12/28) 7:52 AM EST (12/28)
Length of Visible Light 10h 17m
Length of Day
9h 15m
Full, 100% of the Moon is Illuminated
Dec 28
Full
Jan 4
Last Quarter
Jan 11
New
Jan 18
First Quarter
Jan 26
Full

Hourly Weather History & Observations

Time (EST) Temp. Windchill Dew Point Humidity Pressure Visibility Wind Dir Wind Speed Gust Speed Precip Events Conditions
12:53 AM 12.9 °F 6.9 °F 10.9 °F 92% 30.15 in 4.0 mi South 3.5 mph - N/A   Clear
1:30 AM 12.2 °F - 12.2 °F 100% 30.12 in 1.8 mi Calm Calm - N/A   Clear
1:40 AM 12.2 °F - 10.4 °F 92% 30.12 in 0.5 mi Calm Calm - N/A Fog Light Freezing Fog
1:53 AM 14.0 °F - 10.9 °F 88% 30.15 in 0.2 mi Calm Calm - N/A Fog Light Freezing Fog
2:01 AM 14.0 °F - 12.2 °F 93% 30.12 in 1.0 mi Calm Calm - N/A   Clear
2:12 AM 14.0 °F - 10.4 °F 86% 30.13 in 0.8 mi Calm Calm - N/A   Clear
2:39 AM 14.0 °F - 12.2 °F 93% 30.14 in 1.2 mi Calm Calm - N/A   Clear
2:53 AM 14.0 °F - 12.0 °F 92% 30.17 in 0.5 mi Calm Calm - N/A Fog Light Freezing Fog
3:01 AM 14.0 °F - 12.2 °F 93% 30.15 in 2.5 mi Calm Calm - N/A   Clear
3:08 AM 12.2 °F - 10.4 °F 92% 30.15 in 5.0 mi Calm Calm - N/A   Clear
3:23 AM 12.2 °F - 10.4 °F 92% 30.14 in 2.0 mi Calm Calm - N/A   Clear
3:33 AM 15.8 °F - 12.2 °F 86% 30.14 in 4.0 mi Calm Calm - N/A   Clear
3:53 AM 14.0 °F - 12.0 °F 92% 30.16 in 5.0 mi Calm Calm - N/A   Clear
4:53 AM 10.9 °F 4.7 °F 8.1 °F 88% 30.16 in 6.0 mi SSE 3.5 mph - N/A   Clear
5:53 AM 16.0 °F 10.4 °F 12.9 °F 88% 30.15 in 5.0 mi SE 3.5 mph - N/A   Clear
6:53 AM 18.0 °F - 14.0 °F 84% 30.14 in 6.0 mi Calm Calm - N/A   Clear
7:53 AM 18.0 °F 12.7 °F 15.1 °F 88% 30.13 in 6.0 mi East 3.5 mph - N/A   Scattered Clouds
8:53 AM 19.0 °F - 17.1 °F 92% 30.15 in 4.0 mi Calm Calm - N/A   Partly Cloudy
9:53 AM 21.9 °F - 21.9 °F 100% 30.17 in 4.0 mi Calm Calm - N/A   Partly Cloudy
10:53 AM 21.9 °F - 21.9 °F 100% 30.21 in 4.0 mi Calm Calm - N/A   Clear
11:53 AM 27.0 °F - 23.0 °F 85% 30.17 in 5.0 mi Calm Calm - N/A   Clear
1:53 PM 30.0 °F 23.2 °F 23.0 °F 75% 30.06 in 10.0 mi SE 6.9 mph - N/A   Clear
2:53 PM 28.9 °F 19.8 °F 24.1 °F 82% 30.05 in 9.0 mi SE 10.4 mph - N/A   Overcast
3:53 PM 28.9 °F 20.4 °F 24.1 °F 82% 30.04 in 7.0 mi ESE 9.2 mph - N/A   Overcast
4:53 PM 28.9 °F 23.9 °F 23.0 °F 78% 30.01 in 7.0 mi East 4.6 mph - N/A   Mostly Cloudy
5:17 PM 28.4 °F 24.6 °F 23.0 °F 80% 29.99 in 7.0 mi ENE 3.5 mph - N/A   Mostly Cloudy
5:53 PM 28.0 °F 24.2 °F 23.0 °F 81% 30.03 in 8.0 mi East 3.5 mph - N/A   Overcast
6:53 PM 28.0 °F 24.2 °F 24.1 °F 85% 30.01 in 8.0 mi ESE 3.5 mph - N/A   Overcast
7:53 PM 28.0 °F 21.7 °F 23.0 °F 81% 29.99 in 9.0 mi ESE 5.8 mph - N/A   Overcast
8:53 PM 28.0 °F 22.8 °F 23.0 °F 81% 29.96 in 9.0 mi ESE 4.6 mph - N/A   Overcast
9:53 PM 28.0 °F 22.8 °F 23.0 °F 81% 29.94 in 8.0 mi East 4.6 mph - N/A   Overcast
10:27 PM 28.4 °F 22.2 °F 24.8 °F 86% 29.92 in 2.5 mi ESE 5.8 mph - 0.00 in Snow Light Snow
10:35 PM 26.6 °F 22.6 °F 24.8 °F 93% 29.91 in 1.2 mi East 3.5 mph - 0.00 in Snow Light Snow
10:53 PM 27.0 °F 19.5 °F 25.0 °F 92% 29.92 in 1.0 mi ENE 6.9 mph - 0.00 in Snow Light Snow
11:02 PM 26.6 °F 20.0 °F 24.8 °F 93% 29.89 in 1.2 mi East 5.8 mph - 0.00 in Snow Light Snow
11:15 PM 26.6 °F 21.2 °F 24.8 °F 93% 29.89 in 3.0 mi East 4.6 mph - 0.00 in Snow Light Snow
11:25 PM 26.6 °F 20.0 °F 24.8 °F 93% 29.88 in 4.0 mi ENE 5.8 mph - 0.00 in   Overcast
11:53 PM 27.0 °F 20.5 °F 24.1 °F 89% 29.88 in 5.0 mi ENE 5.8 mph - 0.00 in   Overcast